Weather in Pahtakor

Uzbekistan     40°18′38″N   67°57′21″E
temp.,
°C
wind,
m/s
gust,
m/s
humid.,
%
clouds,
%
prec.,
mm/h
press.,
hPa
HPBL,
m
11 april, sun
sun1123:00+17s22400 0.0 101714
02:00+16wnw22410 0.0 101712
05:00+12nw47610 0.0 1019140
08:00+13nw46420 0.0 1020388
11:00+16nnw44310 0.0 1020881
14:00+19nnw44260 0.0 10191293
17:00+19n32280 0.0 10181281
20:00+15nne34393 0.0 101854
12 april, mon
mon1223:00+12wnw22500 0.0 101920
02:00+9nw37490 0.0 1020192
05:00+8nw22530 0.0 102128
08:00+10nw22440 0.0 1022329
11:00+14n21350 0.0 1020805
14:00+17nnw12300 0.0 10191108
17:00+19nnw33282 0.0 10181201
20:00+16ese223487 0.0 101911
13 april, tue
tue1323:00+13wnw224699 0.0 101918
02:00+11wnw2258100 0.0 101929
05:00+11nw2361100 0.0 101960
08:00+13nnw1158100 0.0 1021153
11:00+15e3358100 0.1 1021465
14:00+18e455499 0.0 1020818
17:00+18se7962100 0.1 1019576
20:00+15ese496925 0.3 1019171
14 april, wed
wed1423:00+15ese396676 0.4 1018186
02:00+13se336211 0.3 101739
05:00+13ssw116079 0.3 101711
08:00+16ese234686 0.0 1017151
11:00+23ese67320 0.0 10151010
14:00+26se33283 0.0 10131776
17:00+25ese433063 0.0 10111096
20:00+20ssw33431 0.0 101129
15 april, thu
thu1523:00+17wnw453990 0.0 101283
02:00+15wnw2240100 0.0 101318
05:00+14wsw1144100 0.0 101411
08:00+16s1141100 0.0 1015132
11:00+21wsw132894 0.0 10151118
14:00+25nw2520100 0.0 10141942
17:00+24n322697 0.0 1013752
20:00+19ne333698 0.0 101438